DW8567 Weather Reports


Display with metric or nautical units.
time (UTC)temp
F
wind
direction
speed
MPH
gust
MPH
rain 1hr
in
rain 24hr
in
rain mn
in
humidity
%
barometer
mb
20260510174416 79 294 6.0 16.0 0.00 0.00 0.00 52 1012.7
20260510173910 79 318 5.0 16.0 0.00 0.00 0.00 50 1012.5
20260510173635 78 137 5.0 16.0 0.00 0.00 0.00 50 1012.6
20260510172912 78 98 4.0 10.0 0.00 0.00 0.00 49 1012.7
20260510172351 77 101 4.0 10.0 0.00 0.00 0.00 53 1012.7
20260510171848 77 146 4.0 10.0 0.00 0.00 0.00 50 1012.7
20260510171348 77 101 3.0 10.0 0.00 0.00 0.00 51 1012.7
20260510170848 77 102 2.0 10.0 0.00 0.00 0.00 52 1012.7
20260510170350 77 98 3.0 8.0 0.00 0.00 0.00 53 1012.8
20260510165847 76 161 4.0 8.0 0.00 0.00 0.00 55 1012.9
20260510165349 76 171 4.0 9.0 0.00 0.00 0.00 56 1012.9
20260510164848 76 101 4.0 9.0 0.00 0.00 0.00 56 1012.9
20260510164618 75 81 4.0 7.0 0.00 0.00 0.00 58 1012.9
20260510163855 75 142 4.0 8.0 0.00 0.00 0.00 58 1012.9
20260510163347 75 125 4.0 9.0 0.00 0.00 0.00 60 1013.0
20260510162848 75 140 4.0 9.0 0.00 0.00 0.00 58 1013.1
20260510162349 75 130 3.0 8.0 0.00 0.00 0.00 61 1013.0
20260510161845 74 194 4.0 8.0 0.00 0.00 0.00 60 1013.0
20260510161344 74 143 4.0 8.0 0.00 0.00 0.00 61 1012.9
20260510160844 74 126 4.0 8.0 0.00 0.00 0.00 62 1012.9
20260510160616 73 114 4.0 7.0 0.00 0.00 0.00 62 1013.0
20260510155845 73 184 3.0 7.0 0.00 0.00 0.00 63 1013.1
20260510155339 73 168 3.0 7.0 0.00 0.00 0.00 64 1013.1
20260510154835 72 148 3.0 7.0 0.00 0.00 0.00 66 1013.1
20260510154328 71 155 3.0 7.0 0.00 0.00 0.00 65 1013.1
20260510153822 71 105 2.0 7.0 0.00 0.00 0.00 66 1013.2
20260510153546 70 44 2.0 6.0 0.00 0.00 0.00 68 1013.3
20260510152810 69 96 3.0 6.0 0.00 0.00 0.00 68 1013.3
20260510152306 69 159 2.0 6.0 0.00 0.00 0.00 71 1013.3
20260510151758 68 78 2.0 5.0 0.00 0.00 0.00 75 1013.4
20260510151252 67 338 2.0 6.0 0.00 0.00 0.00 73 1013.4
20260510151017 66 322 2.0 6.0 0.00 0.00 0.00 72 1013.5
20260510150239 66 165 3.0 6.0 0.00 0.00 0.00 74 1013.5
20260510145733 65 92 3.0 6.0 0.00 0.00 0.00 76 1013.5
20260510145227 65 113 3.0 7.0 0.00 0.00 0.00 77 1013.5
20260510144722 64 168 2.0 7.0 0.00 0.00 0.00 78 1013.5
20260510144215 64 153 2.0 6.0 0.00 0.00 0.00 78 1013.4
20260510143710 64 155 3.0 8.0 0.00 0.00 0.00 79 1013.6
20260510143204 63 138 2.0 8.0 0.00 0.00 0.00 79 1013.4
20260510142657 63 128 1.0 6.0 0.00 0.00 0.00 82 1013.5
20260510142151 62 18 2.0 4.0 0.00 0.00 0.00 82 1013.5
20260510141645 62 175 2.0 4.0 0.00 0.00 0.00 81 1013.5
20260510141139 62 85 2.0 6.0 0.00 0.00 0.00 83 1013.5
20260510140636 62 107 3.0 6.0 0.00 0.00 0.00 83 1013.5
20260510140629 61 136 2.0 6.0 0.00 0.00 0.00 84 1013.5
20260510135621 60 76 2.0 4.0 0.00 0.00 0.00 86 1013.5
20260510135115 60 106 1.0 4.0 0.00 0.00 0.00 86 1013.5
20260510134609 59 76 1.0 4.0 0.00 0.00 0.00 87 1013.4
20260510134103 59 107 1.0 4.0 0.00 0.00 0.00 88 1013.4
20260510133557 58 107 2.0 4.0 0.00 0.00 0.00 88 1013.3
20260510133323 58 92 2.0 4.0 0.00 0.00 0.00 89 1013.3
20260510132545 58 50 2.0 4.0 0.00 0.00 0.00 89 1013.3
20260510132040 57 46 1.0 3.0 0.00 0.00 0.00 91 1013.5
20260510131533 57 355 1.0 3.0 0.00 0.00 0.00 91 1013.5
20260510131027 56 71 0.0 4.0 0.00 0.00 0.00 92 1013.5
20260510130524 56 267 1.0 4.0 0.00 0.00 0.00 92 1013.5
20260510130517 56 267 1.0 4.0 0.00 0.00 0.00 91 1013.6
20260510125509 56 267 1.0 4.0 0.00 0.00 0.00 92 1013.7
20260510125003 55 304 1.0 3.0 0.00 0.00 0.00 94 1013.5
20260510124728 55 157 1.0 3.0 0.00 0.00 0.00 94 1013.4
20260510123951 55 157 1.0 3.0 0.00 0.00 0.00 93 1013.3
20260510123446 54 157 1.0 3.0 0.00 0.00 0.00 94 1013.2
20260510122939 54 157 2.0 6.0 0.00 0.00 0.00 93 1013.2
20260510122433 54 157 2.0 6.0 0.00 0.00 0.00 94 1013.0
20260510121927 54 136 1.0 3.0 0.00 0.00 0.00 94 1013.1
20260510121421 54 136 2.0 6.0 0.00 0.00 0.00 95 1013.0
20260510120915 54 136 2.0 6.0 0.00 0.00 0.00 94 1012.9
20260510120641 54 21 2.0 5.0 0.00 0.00 0.00 95 1013.2
20260510115903 53 290 1.0 4.0 0.00 0.00 0.00 94 1013.2
20260510115357 53 212 1.0 3.0 0.00 0.00 0.00 94 1013.1
20260510114851 53 63 2.0 4.0 0.00 0.00 0.00 94 1012.9
20260510114346 53 63 2.0 4.0 0.00 0.00 0.00 94 1012.8
20260510113839 53 34 2.0 4.0 0.00 0.00 0.00 95 1012.8
20260510113333 53 0 2.0 5.0 0.00 0.00 0.00 95 1012.7
20260510112828 53 355 4.0 6.0 0.00 0.00 0.00 95 1012.8
20260510112321 53 342 4.0 7.0 0.00 0.00 0.00 95 1012.7
20260510111815 53 0 3.0 7.0 0.00 0.00 0.00 95 1012.8
20260510111311 53 5 2.0 5.0 0.00 0.00 0.00 96 1012.7
20260510110811 52 5 1.0 4.0 0.00 0.00 0.00 95 1012.6
20260510110310 52 5 1.0 4.0 0.00 0.00 0.00 95 1012.5
20260510105810 52 5 2.0 6.0 0.00 0.00 0.00 95 1012.4
20260510105309 52 5 2.0 6.0 0.00 0.00 0.00 95 1012.2
20260510104808 52 20 2.0 6.0 0.00 0.00 0.00 95 1012.2
20260510104309 52 38 3.0 6.0 0.00 0.00 0.00 95 1012.2
20260510103808 52 13 3.0 6.0 0.00 0.00 0.00 95 1012.1
20260510103307 52 5 2.0 6.0 0.00 0.00 0.00 95 1012.2
20260510102807 52 350 2.0 6.0 0.00 0.00 0.00 95 1012.0
20260510102541 51 355 1.0 5.0 0.00 0.00 0.00 95 1012.1
20260510101807 51 16 1.0 3.0 0.00 0.00 0.00 95 1012.0
20260510101305 51 16 2.0 4.0 0.00 0.00 0.00 95 1011.9
20260510100804 51 16 2.0 4.0 0.00 0.00 0.00 95 1011.9
20260510100301 51 16 2.0 4.0 0.00 0.00 0.00 96 1012.0
20260510100033 51 16 3.0 6.0 0.00 0.00 0.00 96 1011.9
20260510095305 51 19 4.0 8.0 0.00 0.00 0.00 96 1012.0
20260510094759 51 22 4.0 8.0 0.00 0.00 0.00 95 1011.9
20260510094259 51 9 4.0 8.0 0.00 0.00 0.00 95 1011.8
20260510093755 51 340 4.0 8.0 0.00 0.00 0.00 96 1011.8
20260510093520 51 346 4.0 8.0 0.00 0.00 0.00 96 1011.8
20260510092742 51 13 4.0 8.0 0.00 0.00 0.00 96 1011.8
20260510092236 51 5 4.0 9.0 0.00 0.00 0.00 95 1011.8
20260510091730 51 321 7.0 15.0 0.00 0.00 0.00 95 1011.9
20260510091224 50 20 6.0 15.0 0.00 0.00 0.00 95 1011.5
20260510090717 50 317 6.0 13.0 0.00 0.00 0.00 96 1011.9
20260510090211 50 338 7.0 13.0 0.00 0.00 0.00 96 1012.0
20260510085706 50 37 7.0 14.0 0.00 0.00 0.00 95 1011.5
20260510085437 50 355 6.0 14.0 0.00 0.00 0.00 95 1011.5
20260510084936 50 319 3.0 12.0 0.00 0.00 0.00 95 1011.8
20260510084204 50 5 1.0 4.0 0.00 0.00 0.00 95 1011.4
20260510083706 49 5 2.0 4.0 0.00 0.00 0.00 95 1011.4
20260510083206 50 5 3.0 5.0 0.00 0.00 0.00 94 1011.2
20260510082935 50 5 3.0 5.0 0.00 0.00 0.00 94 1011.1
20260510082204 50 5 3.0 5.0 0.00 0.00 0.00 94 1011.1
20260510081703 50 5 3.0 4.0 0.00 0.00 0.00 94 1011.1
20260510081205 50 5 1.0 4.0 0.00 0.00 0.00 94 1011.3
20260510080700 50 5 1.0 3.0 0.00 0.00 0.00 94 1011.3
20260510080202 50 5 2.0 6.0 0.00 0.00 0.00 94 1011.2
20260510075927 50 5 2.0 6.0 0.00 0.00 0.00 94 1011.1
20260510075158 50 5 3.0 7.0 0.00 0.00 0.00 94 1011.2
20260510074657 51 346 4.0 7.0 0.00 0.00 0.00 94 1011.3
20260510074156 51 346 4.0 6.0 0.00 0.00 0.00 94 1011.2
20260510073927 51 11 4.0 8.0 0.00 0.00 0.00 94 1011.0
20260510073429 51 5 4.0 9.0 0.00 0.00 0.00 94 1011.0
20260510072659 51 345 5.0 9.0 0.00 0.00 0.00 93 1010.9
20260510072158 51 350 4.0 6.0 0.00 0.00 0.00 93 1011.0
20260510071659 51 332 2.0 5.0 0.00 0.00 0.00 93 1010.8
20260510071154 51 335 1.0 5.0 0.00 0.00 0.00 93 1010.8
20260510070656 52 85 0.0 0.0 0.00 0.00 0.00 93 1010.7
20260510070154 52 85 0.0 0.0 0.00 0.00 0.00 93 1010.5
20260510065652 52 85 0.0 0.0 0.00 0.00 0.00 93 1010.6
20260510065154 52 85 0.0 0.0 0.00 0.00 0.00 93 1010.6
20260510064657 52 85 0.0 0.0 0.00 0.00 0.00 92 1010.7
20260510064653 52 85 0.0 0.0 0.00 0.00 0.00 93 1010.6
20260510063923 52 85 0.0 0.0 0.00 0.00 0.00 93 1010.7
20260510063153 52 85 0.0 0.0 0.00 0.00 0.00 93 1010.6
20260510062653 52 85 0.0 0.0 0.00 0.00 0.00 93 1010.7
20260510062153 52 85 0.0 0.0 0.00 0.00 0.00 93 1010.6
20260510061654 52 85 0.0 0.0 0.00 0.00 0.00 93 1010.7
20260510061154 52 85 0.0 0.0 0.00 0.00 0.00 93 1010.7
20260510060923 52 85 0.0 0.0 0.00 0.00 0.00 92 1010.6
20260510060153 53 85 0.0 0.0 0.00 0.00 0.00 92 1010.7
20260510055653 53 85 0.0 0.0 0.00 0.00 0.00 92 1010.8
20260510055424 53 85 0.0 0.0 0.00 0.00 0.00 92 1010.9
20260510054924 53 85 0.0 0.0 0.00 0.00 0.00 92 1010.8
20260510054147 53 85 0.0 0.0 0.00 0.00 0.00 92 1010.9
20260510053641 53 85 0.0 0.0 0.00 0.00 0.00 92 1011.0
20260510053135 53 85 0.0 0.0 0.00 0.00 0.00 92 1011.0
20260510052629 53 85 0.0 0.0 0.00 0.00 0.00 92 1011.0
20260510052123 53 85 0.0 0.0 0.00 0.00 0.00 92 1011.1
20260510051847 53 85 0.0 0.0 0.00 0.00 0.00 92 1011.1
20260510051111 53 85 0.0 0.0 0.00 0.00 0.00 92 1011.0
20260510050836 53 85 0.0 0.0 0.00 0.00 0.00 92 1011.1
20260510050058 53 85 0.0 0.0 0.00 0.00 0.00 92 1011.1
20260510045551 53 85 0.0 0.0 0.00 0.00 0.00 91 1011.2
20260510045045 53 85 0.0 0.0 0.00 0.00 0.00 92 1011.2
20260510044810 53 85 0.0 0.0 0.00 0.00 0.00 92 1011.3
20260510044033 53 85 0.0 0.0 0.00 0.00 0.00 91 1011.3
20260510043527 53 85 0.0 0.0 0.00 0.00 0.00 91 1011.3
20260510043253 54 85 0.0 0.0 0.00 0.00 0.00 91 1011.5
20260510042514 54 85 0.0 0.0 0.00 0.00 0.00 91 1011.4
20260510042009 54 85 0.0 0.0 0.00 0.00 0.00 91 1011.5
20260510041504 54 85 0.0 0.0 0.00 0.00 0.00 91 1011.4
20260510040957 54 85 0.0 0.0 0.00 0.00 0.00 91 1011.4
20260510040451 54 85 0.0 0.0 0.00 0.00 0.00 91 1011.6
20260510035945 54 85 0.0 0.0 0.00 0.00 0.00 91 1011.5
20260510035439 54 85 0.0 0.0 0.00 0.00 0.00 91 1011.4
20260510034933 54 85 0.0 0.0 0.00 0.00 0.00 91 1011.3
20260510034427 54 85 0.0 0.0 0.00 0.00 0.00 91 1011.2
20260510033921 54 85 0.0 0.0 0.00 0.00 0.00 91 1011.2
20260510033415 54 85 0.0 0.0 0.00 0.00 0.00 91 1011.1
20260510032908 54 85 0.0 0.0 0.00 0.00 0.00 91 1011.1
20260510032403 54 85 0.0 0.0 0.00 0.00 0.00 91 1011.1
20260510032128 54 86 0.0 0.0 0.00 0.00 0.00 91 1011.1
20260510031351 54 86 0.0 0.0 0.00 0.00 0.00 90 1011.0
20260510030845 54 86 0.0 0.0 0.00 0.00 0.00 90 1010.9
20260510030612 55 86 0.0 0.0 0.00 0.00 0.00 89 1010.9
20260510025832 55 86 0.0 0.0 0.00 0.00 0.00 90 1010.9
20260510025327 55 86 0.0 0.0 0.00 0.00 0.00 89 1011.0
20260510025052 55 86 0.0 0.0 0.00 0.00 0.00 89 1011.1
20260510024314 55 86 0.0 0.0 0.00 0.00 0.00 89 1011.1
20260510023809 55 86 0.0 0.0 0.00 0.00 0.00 89 1011.0
20260510023533 55 86 0.0 0.0 0.00 0.00 0.00 89 1010.9
20260510023029 55 86 0.0 0.0 0.00 0.00 0.00 89 1011.0
20260510022251 55 86 0.0 0.0 0.00 0.00 0.00 89 1011.0
20260510021745 55 86 0.0 0.0 0.00 0.00 0.00 89 1011.0
20260510021239 56 86 0.0 0.0 0.00 0.00 0.00 88 1010.9
20260510020733 56 86 0.0 0.0 0.00 0.00 0.00 88 1010.9
20260510020226 56 86 0.0 1.0 0.00 0.00 0.00 88 1010.8
20260510015720 56 86 0.0 1.0 0.00 0.00 0.00 88 1010.8
20260510015215 56 86 0.0 2.0 0.00 0.00 0.00 88 1010.8
20260510014709 56 86 1.0 2.0 0.00 0.00 0.00 87 1010.8
20260510014203 56 86 0.0 2.0 0.00 0.00 0.00 87 1010.7
20260510013657 56 86 0.0 2.0 0.00 0.00 0.00 87 1010.8
20260510013151 56 86 0.0 2.0 0.00 0.00 0.00 87 1010.8
20260510012645 56 86 1.0 2.0 0.00 0.00 0.00 86 1010.7
20260510012151 57 86 0.0 1.0 0.00 0.00 0.00 86 1010.8
20260510012145 57 86 0.0 2.0 0.00 0.00 0.00 86 1010.9
20260510011141 57 86 0.0 1.0 0.00 0.00 0.00 86 1010.7
20260510010910 57 86 0.0 1.0 0.00 0.00 0.00 86 1010.6
20260510010136 57 86 0.0 2.0 0.00 0.00 0.00 85 1010.6
20260510005636 57 86 1.0 3.0 0.00 0.00 0.00 85 1010.5
20260510005143 57 86 1.0 3.0 0.00 0.00 0.00 85 1010.4
20260510005136 57 86 1.0 3.0 0.00 0.00 0.00 85 1010.5
20260510004132 57 86 1.0 3.0 0.00 0.00 0.00 85 1010.5
20260510003630 58 86 1.0 3.0 0.00 0.00 0.00 85 1010.5
20260510003127 58 86 1.0 3.0 0.00 0.00 0.00 85 1010.5
20260510002628 58 61 1.0 2.0 0.00 0.00 0.00 84 1010.6
20260510002128 58 61 1.0 2.0 0.00 0.00 0.00 84 1010.5
20260510001629 58 61 0.0 3.0 0.00 0.00 0.00 84 1010.5
20260510001130 58 61 1.0 3.0 0.00 0.00 0.00 84 1010.6
20260510000628 58 61 1.0 3.0 0.00 0.00 0.00 84 1010.5
20260510000129 58 61 2.0 3.0 0.00 0.00 0.00 83 1010.4
20260509235629 58 61 2.0 3.0 0.00 0.00 0.00 83 1010.4
20260509235129 58 61 1.0 3.0 0.00 0.00 0.00 83 1010.3
20260509234629 59 61 1.0 3.0 0.00 0.00 0.00 83 1010.5
20260509234126 59 61 2.0 4.0 0.00 0.00 0.00 82 1010.5
20260509233626 59 66 3.0 8.0 0.00 0.00 0.00 82 1010.4
20260509233127 59 89 4.0 8.0 0.00 0.00 0.00 82 1010.2
20260509232855 59 69 3.0 7.0 0.00 0.00 0.00 82 1010.1
20260509232124 59 80 3.0 7.0 0.00 0.00 0.00 82 1010.1
20260509231624 59 105 3.0 7.0 0.00 0.00 0.00 82 1010.1
20260509231123 59 105 3.0 7.0 0.00 0.00 0.00 82 1010.0
20260509230625 59 87 4.0 8.0 0.00 0.00 0.00 82 1010.0
20260509230123 59 116 4.0 8.0 0.00 0.00 0.00 82 1009.9
20260509225624 59 96 4.0 9.0 0.00 0.00 0.00 82 1009.8
20260509225124 59 92 4.0 9.0 0.00 0.00 0.00 82 1009.9
20260509224625 59 98 4.0 8.0 0.00 0.00 0.00 82 1010.1
20260509224122 59 79 4.0 9.0 0.00 0.00 0.00 82 1010.0
20260509223622 59 91 4.0 9.0 0.00 0.00 0.00 81 1010.3
20260509223122 59 91 3.0 8.0 0.00 0.00 0.00 81 1010.2
20260509222623 59 88 3.0 8.0 0.00 0.00 0.00 82 1010.2
20260509222121 59 74 3.0 8.0 0.00 0.00 0.00 81 1010.4
20260509221621 59 64 4.0 8.0 0.00 0.00 0.00 82 1010.4
20260509221122 59 40 4.0 8.0 0.00 0.00 0.00 82 1010.3
20260509220622 59 65 4.0 8.0 0.00 0.00 0.00 82 1010.2
20260509220123 59 56 3.0 8.0 0.00 0.00 0.00 81 1010.3
20260509215618 59 38 3.0 8.0 0.00 0.00 0.00 80 1010.4
20260509215118 60 74 3.0 7.0 0.00 0.00 0.00 81 1010.5
20260509214619 60 5 4.0 9.0 0.00 0.00 0.00 80 1010.6
20260509214118 60 0 3.0 9.0 0.00 0.00 0.00 80 1010.7
20260509213851 60 53 3.0 6.0 0.00 0.00 0.00 80 1010.7
20260509213118 60 5 2.0 7.0 0.00 0.00 0.00 81 1010.7
20260509212618 60 331 4.0 7.0 0.00 0.00 0.00 80 1010.7
20260509212118 60 81 4.0 10.0 0.00 0.00 0.00 79 1010.5
20260509211620 61 94 5.0 9.0 0.00 0.00 0.00 77 1010.8
20260509211118 61 59 5.0 10.0 0.00 0.00 0.00 76 1010.7
20260509210618 61 350 5.0 10.0 0.00 0.00 0.00 73 1011.0
20260509210119 62 342 5.0 10.0 0.00 0.00 0.00 73 1010.8
20260509205617 62 0 6.0 10.0 0.00 0.00 0.00 73 1010.5
20260509205119 62 340 5.0 10.0 0.00 0.00 0.00 74 1010.5
20260509204619 62 325 5.0 10.0 0.00 0.00 0.00 74 1010.5
20260509204117 62 355 6.0 11.0 0.00 0.00 0.00 74 1010.4
20260509203618 62 340 7.0 14.0 0.00 0.00 0.00 74 1010.4
20260509203350 62 320 7.0 14.0 0.00 0.00 0.00 74 1010.4
20260509202618 62 319 9.0 15.0 0.00 0.00 0.00 74 1010.2
20260509202118 61 334 9.0 15.0 0.00 0.00 0.00 74 1009.8
20260509201619 61 334 8.0 14.0 0.00 0.00 0.00 74 1010.0
20260509201119 61 310 8.0 14.0 0.00 0.00 0.00 73 1010.1
20260509200619 61 350 8.0 14.0 0.00 0.00 0.00 73 1010.3
20260509200119 61 342 8.0 14.0 0.00 0.00 0.00 73 1010.1
20260509195616 61 327 7.0 15.0 0.00 0.00 0.00 74 1010.3
20260509195116 61 348 7.0 15.0 0.00 0.00 0.00 76 1010.1
20260509194616 61 325 8.0 15.0 0.00 0.00 0.00 75 1010.4
20260509194115 61 350 8.0 16.0 0.00 0.00 0.00 75 1010.4
20260509193846 61 14 9.0 16.0 0.00 0.00 0.00 76 1010.6
20260509193115 61 344 11.0 17.0 0.00 0.00 0.00 74 1010.6
20260509192616 61 5 9.0 17.0 0.00 0.00 0.00 73 1010.7
20260509192116 61 322 7.0 14.0 0.00 0.00 0.00 74 1010.9
20260509191612 61 320 9.0 14.0 0.00 0.00 0.00 73 1010.8
20260509191104 61 348 9.0 14.0 0.00 0.00 0.00 74 1010.7
20260509190559 62 310 8.0 13.0 0.00 0.00 0.00 74 1010.9
20260509190053 62 308 7.0 13.0 0.00 0.00 0.00 74 1010.9
20260509185545 62 314 6.0 13.0 0.00 0.00 0.00 74 1011.1
20260509185038 62 336 6.0 13.0 0.00 0.00 0.00 73 1011.1
20260509184532 62 316 7.0 12.0 0.00 0.00 0.00 73 1011.1
20260509184024 62 309 7.0 13.0 0.00 0.00 0.00 72 1011.1
20260509183524 62 320 6.0 13.0 0.00 0.00 0.00 72 1011.1
20260509183023 62 313 7.0 15.0 0.00 0.00 0.00 73 1011.1
20260509182753 62 336 7.0 15.0 0.00 0.00 0.00 72 1011.1
20260509182023 62 319 7.0 11.0 0.00 0.00 0.00 69 1011.2
20260509181525 62 296 7.0 11.0 0.00 0.00 0.00 69 1011.1
20260509181023 62 293 7.0 11.0 0.00 0.00 0.00 69 1011.1
20260509180523 62 302 7.0 11.0 0.00 0.00 0.00 70 1011.0
20260509180023 62 316 7.0 11.0 0.00 0.00 0.00 70 1011.0
20260509175523 62 317 6.0 11.0 0.00 0.00 0.00 70 1010.8
20260509175024 63 317 5.0 11.0 0.00 0.00 0.00 71 1010.9